Theta_e
307 308 308 308 308 307 308 310 310 313 313 314 314 314 313 312 311 306 303 307 305 303 305 308 309 305 306 307 303 304 301 302 298 295 297 296 296 298 296 299 297 295 292 293 293 290 288 306 302 296 298 297 299 299
306 307 308 308 307 307 309 309 309 310 313 313 314 314 313 312 311 309 301 309 311 305 307 309 308 309 310 310 310 309 303 305 307 301 299 298 298 297 294 293 302 296 298 296 295 294 300 300 299 300 299 299 299 298
307 307 307 307 307 308 309 309 309 309 312 313 313 314 314 313 312 308 303 303 305 303 305 304 304 309 311 312 317 307 309 313 304 306 301 298 297 298 294 297 300 302 303 298 296 297 298 300 301 302 302 300 301 301
306 307 308 307 307 307 307 307 308 309 311 313 313 313 313 313 312 310 301 304 305 304 299 302 311 305 314 315 315 315 311 309 306 304 300 298 298 302 298 299 298 301 302 298 295 298 300 301 302 301 302 303 303 304
306 306 307 307 307 307 307 307 308 309 308 313 313 313 313 312 310 307 304 304 306 304 300 299 304 308 308 312 312 310 309 306 303 301 298 300 302 300 299 299 297 301 298 296 293 300 298 298 300 304 302 302 303 303
305 306 307 307 307 307 307 306 307 308 309 313 314 314 313 311 309 304 300 306 306 306 301 296 302 303 308 309 307 306 306 304 302 301 301 302 303 300 295 295 300 301 302 301 299 302 302 302 304 305 304 304 305 304
306 306 307 307 307 307 307 307 307 307 309 312 313 312 311 309 304 301 300 304 306 304 302 296 296 302 306 305 304 303 304 302 302 299 298 300 298 298 294 292 300 303 304 303 304 303 300 302 300 305 306 306 306 304
306 306 307 307 307 307 307 308 308 308 308 312 311 311 309 308 306 301 305 307 305 304 304 296 295 297 303 299 298 302 299 300 300 300 298 299 298 297 292 298 301 303 304 304 304 303 301 303 305 305 305 304 302 300
305 306 306 307 307 307 307 308 308 308 309 311 310 310 307 301 297 301 312 310 307 305 297 297 293 291 301 299 299 299 300 295 300 297 298 298 295 293 297 299 301 304 302 301 303 302 305 304 304 304 302 301 299 299
305 306 306 307 307 306 307 308 308 307 310 309 308 302 295 300 311 309 303 299 300 299 302 297 298 295 299 298 297 297 298 296 293 297 298 294 293 300 301 302 303 304 303 302 299 299 302 301 302 302 301 300 299 299
306 306 306 307 307 307 307 306 308 309 309 303 299 297 302 311 302 300 295 294 294 293 296 298 299 295 301 296 296 299 294 295 292 295 294 292 291 298 302 303 303 303 305 306 305 304 303 302 301 300 299 299 299 300
306 306 306 307 307 306 306 306 306 306 303 303 304 307 305 301 298 295 291 293 293 292 295 296 299 299 300 304 298 298 295 296 291 298 294 290 296 299 303 303 302 304 306 305 306 305 304 303 302 300 299 298 301 299
306 306 306 306 306 306 305 305 307 308 306 306 302 299 297 295 287 289 287 289 290 294 296 296 298 300 300 302 298 298 295 292 298 293 292 294 299 301 302 302 302 306 306 305 304 304 304 302 302 300 298 301 301 301
305 306 306 306 306 306 305 306 308 308 304 297 293 290 291 289 291 292 292 293 297 298 299 300 299 298 298 298 297 295 297 295 290 289 291 296 298 299 301 304 305 304 304 303 303 302 302 300 301 303 302 301 301 300
305 305 306 306 306 306 306 306 308 307 302 296 295 287 290 294 295 296 298 297 300 303 303 300 299 298 296 297 297 295 291 290 292 292 296 298 298 301 302 305 304 304 302 301 301 300 300 300 301 301 301 301 301 301
305 304 302 306 306 306 306 308 304 304 300 298 296 294 296 293 293 296 299 297 302 304 302 300 298 297 294 295 293 292 292 290 293 299 299 299 299 301 304 305 304 304 302 300 299 299 299 299 298 300 301 301 301 301
303 296 305 305 306 306 306 302 301 298 296 296 294 297 296 295 296 298 298 300 306 304 298 297 296 296 296 292 292 295 293 297 299 298 298 300 300 303 305 305 305 303 301 299 298 298 299 300 301 300 298 300 301 301
297 303 305 305 305 305 301 301 297 295 294 296 294 297 300 299 299 301 303 304 302 300 297 296 297 293 292 292 291 297 299 300 300 301 301 301 302 305 305 304 303 302 300 299 298 298 298 299 299 298 299 300 301 301
301 303 305 306 304 299 295 296 298 292 294 296 297 299 299 299 302 305 305 304 303 302 300 298 295 291 292 297 298 299 301 302 301 300 300 302 305 306 305 305 303 300 299 298 297 296 298 300 299 300 300 299 297 298
303 305 305 305 305 297 294 295 301 295 292 294 298 297 297 298 301 303 302 302 300 298 296 295 295 297 298 299 302 303 302 303 303 301 299 301 305 306 304 303 301 299 299 298 298 296 295 295 295 299 300 299 299 299
304 304 306 304 301 300 297 295 294 295 295 294 297 297 296 298 296 296 297 300 298 296 294 299 300 300 303 303 304 305 303 303 300 302 301 299 303 306 304 303 302 300 297 296 297 296 294 294 295 296 300 299 300 300
303 305 303 304 298 298 294 297 294 296 294 294 294 295 291 291 292 293 297 297 297 300 302 300 300 302 302 302 300 301 300 301 301 300 299 301 302 303 303 304 303 302 302 299 297 297 296 296 296 296 299 299 299 301
304 303 300 298 293 292 292 298 294 294 289 291 293 291 291 292 294 297 294 297 298 304 305 304 303 303 303 303 302 302 301 298 296 298 302 302 303 303 304 303 304 303 302 300 301 299 298 294 294 296 298 297 299 300
303 297 293 292 292 288 295 292 295 293 293 292 291 290 292 293 297 295 293 295 299 302 302 301 303 301 300 300 299 299 300 301 299 300 303 305 303 302 303 303 304 304 303 304 303 300 299 298 296 297 298 298 299 300
291 291 292 287 294 292 291 292 292 292 291 293 291 291 292 296 292 293 292 296 298 299 300 300 300 300 299 298 300 300 301 301 299 298 299 304 304 302 301 302 302 302 304 302 301 301 299 300 301 300 299 299 298 298
287 293 290 292 291 291 291 290 291 291 291 290 292 293 295 293 291 289 291 295 296 297 298 298 299 298 298 300 299 298 298 300 302 299 299 301 303 302 301 301 300 301 304 303 301 301 302 303 303 302 301 299 293 298
286 290 293 297 295 293 291 292 293 290 289 288 289 289 289 288 289 290 293 299 299 299 301 301 300 299 299 300 302 301 301 303 302 301 301 301 302 304 303 301 301 302 305 305 303 302 301 301 304 307 306 304 303 300
293 293 290 293 292 293 291 292 291 290 289 291 291 289 288 287 286 290 293 300 298 300 300 301 301 302 301 301 301 300 302 303 303 301 301 300 301 303 305 304 304 291 305 305 304 302 301 301 302 306 306 305 300 300
293 295 295 292 292 292 292 292 290 293 294 293 290 286 286 290 292 293 296 297 299 301 299 298 298 300 300 300 301 300 301 300 299 297 296 296 298 301 305 304 302 303 303 301 289 293 298 300 303 305 307 306 303 299
295 297 294 293 291 289 291 293 291 293 292 291 291 292 291 292 296 299 298 297 297 297 298 298 298 299 298 298 298 300 302 302 301 300 297 297 300 304 305 306 305 305 305 304 300 298 289 294 297 301 303 301 298 296
297 295 293 292 291 293 292 294 294 293 293 291 292 290 290 292 295 297 298 297 298 298 297 296 297 297 297 298 297 296 297 301 303 302 302 303 304 303 304 304 304 304 304 303 302 299 298 299 301 302 302 299 297 295
294 292 291 289 291 294 294 292 292 291 290 289 289 291 291 291 289 292 296 296 296 295 293 296 296 296 298 299 298 298 292 299 300 302 302 300 300 302 303 304 304 304 303 302 300 298 297 297 300 301 300 299 298 298
293 293 292 291 290 290 292 292 290 289 290 289 290 292 292 291 288 293 297 297 296 296 296 296 298 299 299 299 298 298 294 299 297 290 290 288 286 289 296 301 303 303 302 301 300 300 298 296 300 300 300 301 301 301
Wind_Speed
19 21 21 19 18 17 16 13 10 13 23 21 21 20 18 16 14 5 5 5 4 2 5 4 5 5 4 3 4 3 5 6 5 4 3 2 2 1 4 2 4 4 4 1 2 3 2 6 5 5 5 2 2 5
18 21 21 20 18 17 16 16 12 7 22 21 21 20 18 16 14 7 3 3 1 2 4 3 3 2 2 2 5 3 5 2 4 5 1 2 4 4 2 2 6 4 4 5 3 5 2 5 7 1 2 3 4 3
19 20 21 20 17 16 16 15 13 8 19 22 22 20 19 17 14 9 2 4 3 2 4 4 3 7 6 3 3 6 2 3 2 4 4 2 6 3 3 1 2 4 2 5 4 1 4 4 4 5 3 3 4 5
19 20 22 21 20 20 17 13 12 11 8 22 21 20 18 16 14 8 2 2 2 0 3 5 3 3 6 7 7 4 6 5 5 4 4 3 3 2 2 4 4 3 4 4 3 3 1 6 3 3 6 8 9 8
19 20 22 21 21 20 20 18 13 11 7 21 22 20 18 15 12 4 1 3 1 3 3 2 3 6 5 6 9 9 6 5 4 4 4 1 0 4 2 3 3 2 2 4 4 4 5 3 2 5 9 7 6 7
20 21 22 22 22 22 21 20 15 11 13 17 23 20 18 17 12 3 2 3 4 4 2 1 4 3 6 6 9 8 4 4 4 4 1 1 0 4 3 2 2 1 4 5 5 4 5 3 5 7 8 7 7 7
21 22 23 23 22 22 22 20 18 14 15 14 23 19 18 17 4 3 5 4 3 2 3 3 3 5 1 5 4 4 5 3 4 2 3 3 1 4 3 3 6 5 6 5 5 6 6 6 5 6 8 6 6 5
22 23 24 24 23 22 22 21 18 15 12 18 23 19 16 10 8 5 3 5 4 3 3 4 2 3 1 1 1 1 2 4 5 2 2 3 3 3 0 2 5 7 8 8 7 7 5 6 7 8 6 6 7 8
23 24 25 24 23 23 22 21 19 17 13 26 26 23 8 3 2 5 3 5 1 4 3 2 6 5 2 1 1 4 3 3 3 2 2 4 0 3 8 7 7 6 6 7 6 8 10 10 6 6 6 7 7 8
24 25 26 25 24 23 24 22 20 9 28 31 14 4 3 5 6 4 6 4 4 3 1 2 2 3 5 1 0 3 2 3 2 5 2 3 4 4 3 8 8 8 8 7 6 6 5 6 6 5 6 5 5 5
25 26 26 26 25 24 25 19 24 24 28 3 4 3 2 11 4 2 3 4 2 1 2 4 5 5 2 4 3 2 4 2 3 5 6 2 3 1 3 9 7 8 13 12 11 7 7 7 5 5 4 5 5 6
26 27 27 27 26 26 24 20 17 6 4 8 6 5 3 4 2 5 5 3 5 8 2 6 4 5 3 4 4 1 3 2 3 2 4 2 3 5 8 9 8 12 13 11 8 8 7 7 6 6 5 5 5 5
27 28 27 27 26 26 25 22 20 8 8 3 7 4 3 0 3 10 10 4 4 5 6 3 2 4 3 5 3 3 3 3 2 2 4 4 5 7 8 7 11 13 12 10 9 8 8 7 6 5 5 4 4 4
28 26 26 26 26 27 27 23 12 2 6 5 4 8 5 5 5 6 6 6 6 6 8 7 3 4 2 4 3 4 3 4 1 3 5 4 7 8 7 9 13 9 10 10 8 7 7 6 5 5 5 4 3 4
26 25 24 25 24 26 24 19 6 3 3 4 5 7 7 5 5 5 6 5 4 8 9 6 4 5 2 4 2 4 3 4 7 5 4 5 7 11 12 11 11 9 7 7 6 6 6 6 5 4 4 3 3 3
27 23 6 23 25 22 20 10 4 2 2 2 2 4 2 4 2 2 9 4 3 9 5 5 5 4 2 4 3 6 7 6 4 4 4 7 9 10 11 10 9 8 8 7 6 5 5 6 4 3 3 3 3 3
11 3 23 25 22 22 10 4 2 4 2 0 2 2 3 3 7 5 5 4 5 10 9 5 5 8 3 3 4 6 6 4 5 5 4 9 10 12 11 10 9 8 8 7 6 5 5 4 4 4 3 3 2 3
5 17 24 24 17 10 2 3 4 2 2 1 2 4 3 3 5 5 3 3 5 4 4 5 5 4 6 5 3 4 3 4 4 7 7 7 8 10 9 10 8 7 8 6 5 4 5 4 3 2 1 1 2 3
15 16 24 21 6 4 4 2 1 2 2 2 4 3 0 3 3 5 4 4 4 4 6 4 4 3 3 2 5 5 6 9 11 6 5 7 10 10 9 9 8 8 7 6 5 4 3 3 2 2 1 2 2 2
23 20 19 11 2 4 4 3 2 3 3 3 3 5 3 2 3 4 5 4 4 4 5 2 3 3 5 3 4 7 7 8 10 8 4 4 5 9 9 8 6 6 6 6 5 5 3 2 1 2 2 2 3 2
14 11 10 8 3 3 4 3 2 1 1 3 4 4 4 4 5 5 5 3 5 3 3 1 3 3 6 6 7 8 7 7 5 7 7 5 4 7 5 4 6 5 4 4 4 4 4 3 3 2 2 1 1 1
7 13 6 3 4 4 3 2 4 2 4 2 4 5 4 4 4 4 4 5 3 0 4 3 3 6 9 8 5 6 7 7 6 5 6 9 5 4 4 5 5 5 6 6 5 5 4 4 3 3 2 3 3 2
9 5 4 3 5 6 2 2 4 4 4 2 3 2 3 3 3 4 4 2 1 3 6 7 5 6 11 6 8 7 6 8 5 5 6 5 5 5 5 5 4 4 4 4 4 5 5 6 5 4 4 3 2 3
6 5 3 3 4 3 2 3 3 3 3 3 2 3 3 3 3 4 3 3 2 1 7 7 6 7 5 6 5 4 3 4 5 5 5 8 6 3 5 5 4 4 3 3 4 4 4 5 6 4 4 4 4 4
5 2 4 4 3 3 4 3 2 3 3 3 4 3 2 2 2 2 2 2 1 3 4 4 5 5 5 3 3 4 4 4 6 7 1 4 4 4 4 3 3 4 3 4 2 3 4 5 6 7 6 5 6 6
3 4 5 4 4 4 4 5 4 4 4 4 4 3 2 2 3 4 4 4 3 3 4 5 5 4 3 3 4 3 1 2 5 5 1 5 5 5 5 5 3 2 3 3 4 2 2 4 5 9 8 9 8 6
3 2 3 2 4 5 5 4 4 5 4 4 4 4 4 4 4 3 1 2 3 2 3 4 6 6 6 4 4 4 3 5 6 4 4 3 4 4 5 6 6 5 5 5 5 4 4 4 5 6 5 7 9 8
1 2 4 3 4 4 6 4 2 2 3 4 5 4 7 5 4 2 3 3 3 5 5 5 5 6 5 4 4 4 4 4 5 4 3 2 1 3 5 4 4 7 4 4 4 2 2 4 5 6 4 2 4 5
4 2 6 7 5 5 2 2 1 1 1 4 4 3 2 1 1 1 2 0 0 8 7 6 4 4 4 4 3 3 4 4 4 2 4 3 1 2 3 4 4 4 3 4 3 2 3 4 4 4 5 3 2 7
3 3 4 3 4 3 2 2 2 3 4 4 5 3 2 2 2 2 2 3 3 5 4 5 4 5 3 3 2 2 2 3 4 4 3 2 1 2 3 4 4 4 4 4 4 2 1 3 3 2 4 4 5 6
3 4 5 4 4 4 4 4 5 4 4 4 4 4 4 3 2 3 3 2 4 4 5 5 4 4 5 4 4 4 4 5 6 6 4 3 3 2 2 1 2 2 4 5 5 4 2 3 5 6 6 10 11 9
3 4 6 5 4 1 3 5 4 4 3 3 2 3 2 3 2 2 2 3 4 4 3 4 4 3 4 4 3 3 4 1 2 2 4 2 2 3 4 3 1 3 4 4 3 2 3 5 5 6 8 12 12 10
7 7 6 4 3 3 1 4 4 3 3 3 1 4 2 3 3 4 2 3 4 5 4 4 2 3 4 5 3 1 2 2 3 2 4 2 3 2 3 3 1 2 2 1 3 3 5 6 6 6 5 7 8 4
Wind_Direction
203 200 197 194 189 196 198 185 205 195 170 168 166 165 166 164 165 148 261 216 137 135 284 8 357 17 346 31 122 255 43 360 39 65 110 259 122 246 86 147 174 153 119 305 71 53 282 345 24 88 221 298 328 10
201 198 196 192 187 188 186 176 185 216 169 166 163 164 163 165 163 159 272 307 161 130 234 280 291 277 299 223 152 26 153 137 175 92 63 112 35 36 124 35 354 35 172 158 138 184 257 1 102 86 154 56 345 340
200 194 193 189 184 178 170 167 173 201 168 162 162 164 163 164 167 172 240 294 42 48 324 32 302 306 354 336 206 113 345 158 51 168 152 146 80 111 75 320 95 346 131 110 107 24 91 67 53 64 55 25 335 342
197 193 189 185 180 174 170 164 176 186 174 159 159 163 162 165 171 165 230 311 96 170 114 281 311 348 334 15 30 71 127 54 105 76 84 91 101 63 171 180 122 223 29 96 67 114 156 29 46 32 24 23 28 39
192 189 186 182 177 176 170 167 178 179 184 164 159 163 162 155 147 111 250 255 107 96 156 242 327 324 354 16 35 40 68 78 51 37 49 75 27 65 337 71 26 352 178 139 189 213 145 247 352 50 46 42 51 44
188 184 181 178 174 171 168 169 175 172 187 177 161 162 151 140 131 113 334 344 184 169 94 96 279 338 9 43 46 37 28 63 83 105 136 47 33 100 89 113 264 85 92 153 169 174 139 175 70 38 77 45 45 37
184 179 177 175 173 170 169 169 172 176 190 188 156 152 145 148 121 157 184 200 123 130 102 49 355 296 91 36 360 21 18 57 92 96 67 125 352 77 98 162 203 179 119 87 130 100 53 44 55 69 72 51 49 27
179 175 174 172 169 167 164 165 166 178 196 173 142 136 127 86 17 345 280 250 137 103 80 118 260 30 32 8 17 0 50 27 7 136 25 98 1 62 31 237 163 134 114 88 90 100 134 103 71 52 52 34 24 12
173 172 171 169 166 163 161 165 167 166 209 136 122 118 104 74 144 237 220 134 164 124 160 130 144 207 20 265 173 19 86 55 317 92 244 94 350 222 204 182 164 157 128 140 94 75 80 73 64 53 51 26 30 10
169 167 169 165 163 161 162 162 169 189 138 130 118 106 159 205 201 100 17 41 15 322 66 197 118 178 123 161 67 87 36 154 137 243 82 95 246 278 193 146 134 127 128 118 92 79 72 62 59 57 51 40 23 7
164 165 165 160 157 157 156 148 166 160 137 81 126 134 197 135 85 75 129 130 199 223 218 223 158 139 261 119 159 156 175 180 131 248 128 215 271 209 135 116 123 103 96 93 106 114 115 115 107 88 59 28 31 3
161 163 160 154 157 154 153 159 177 147 138 161 133 109 89 94 92 138 181 205 154 204 194 147 182 154 190 117 98 244 144 50 191 162 97 235 241 160 142 127 113 105 107 105 105 105 99 93 93 90 69 31 28 339
160 159 156 155 156 151 155 172 195 160 124 75 61 71 106 281 109 170 179 203 155 172 167 136 96 131 46 60 69 94 98 204 65 78 216 221 165 160 137 114 92 112 103 101 93 87 95 105 82 68 56 35 17 359
156 153 151 153 152 154 166 179 194 234 76 91 128 147 175 183 220 200 156 153 209 139 142 138 110 135 140 76 142 115 205 98 167 216 225 199 167 149 125 112 113 111 108 107 107 94 96 97 83 76 60 21 344 340
142 143 148 153 153 160 169 172 178 45 103 125 154 170 192 200 199 183 184 138 180 144 141 120 70 104 73 113 175 110 133 211 204 216 207 166 149 124 114 115 113 111 110 101 100 98 94 85 72 60 45 353 345 352
133 126 119 145 147 148 154 152 50 47 45 138 211 158 199 125 187 202 171 177 170 144 95 74 105 93 168 164 140 196 162 211 226 192 145 134 126 117 119 118 115 114 109 103 97 98 92 75 70 59 46 2 1 27
119 84 144 139 136 139 143 74 65 51 64 310 268 238 183 187 183 170 138 172 161 144 151 121 119 187 110 160 204 178 189 189 165 128 122 139 129 126 124 119 116 115 114 115 114 110 110 97 80 74 55 354 24 74
84 131 136 138 133 141 59 49 70 93 217 279 11 302 272 167 131 114 122 125 110 112 108 163 126 124 170 177 197 200 106 84 79 120 126 120 111 123 121 119 124 121 120 126 122 102 91 90 88 82 58 338 93 66
136 140 145 140 140 105 87 55 341 92 40 337 279 287 258 64 44 107 88 75 98 118 93 55 109 158 188 175 134 128 135 137 134 131 116 112 121 123 122 123 121 121 128 128 123 114 110 115 136 146 127 102 103 60
131 133 149 146 159 80 81 55 16 66 14 298 1 345 31 41 315 80 86 67 80 76 59 89 176 195 159 158 133 134 129 132 129 124 113 112 127 128 139 139 142 137 122 122 120 124 119 80 45 139 133 133 117 97
115 130 99 67 56 67 87 117 50 46 116 60 334 17 6 2 31 31 25 340 64 86 74 22 69 45 83 96 112 120 118 129 141 151 148 131 154 138 137 136 135 133 139 147 145 163 154 171 192 192 179 190 203 236
113 86 83 33 68 66 67 352 131 124 61 24 30 24 10 33 19 13 305 46 44 14 99 110 104 110 98 104 108 119 135 121 124 110 92 115 120 125 146 160 158 172 171 169 169 179 181 182 189 220 241 271 306 308
90 64 72 47 55 30 13 318 81 45 76 69 25 58 34 43 348 315 65 14 48 22 120 103 71 71 105 98 89 82 95 115 119 134 137 117 122 122 121 129 135 127 126 171 182 171 174 181 194 210 240 256 274 288
43 81 80 76 97 136 266 67 72 88 80 89 66 64 43 39 345 44 59 10 349 29 97 107 124 102 65 61 78 81 59 103 109 87 115 123 126 138 133 133 124 122 133 145 153 179 172 182 182 211 232 243 263 276
72 349 93 77 121 116 70 68 76 95 110 107 89 101 112 90 76 75 131 228 126 117 118 116 100 102 115 107 97 86 49 96 121 117 138 136 124 106 99 113 132 138 137 108 75 133 190 190 192 202 215 224 239 259
118 202 153 138 166 117 137 119 146 127 111 80 83 135 148 148 129 166 192 208 171 134 152 148 137 115 88 141 124 104 88 85 118 99 79 122 149 152 154 148 158 238 188 147 136 154 243 227 214 214 221 224 225 216
93 156 209 203 123 112 89 74 100 101 112 138 153 155 152 152 169 220 296 302 134 174 140 131 122 118 125 120 104 97 77 92 112 142 147 126 131 148 148 160 184 218 178 174 173 182 209 257 258 248 211 221 213 187
59 80 134 105 81 65 101 98 124 162 145 145 133 156 165 146 188 225 216 301 144 113 94 80 105 111 110 109 109 93 102 127 107 86 53 8 200 182 141 136 130 151 163 167 165 161 209 242 260 267 183 75 222 167
31 45 75 77 75 69 72 111 130 91 113 107 94 102 119 174 271 297 303 20 331 107 103 100 68 87 83 81 94 114 118 121 103 122 209 217 267 285 178 156 162 176 181 171 167 207 259 258 263 280 255 179 254 159
56 50 79 49 67 62 340 89 80 58 48 87 104 107 78 24 319 312 68 61 78 107 119 113 103 99 105 154 171 59 24 119 116 136 145 129 259 230 168 168 181 204 198 178 178 193 256 261 260 248 228 130 158 146
83 87 77 68 74 74 85 90 78 70 62 56 52 75 105 131 25 11 63 97 103 96 100 99 89 90 86 68 91 107 69 26 92 85 90 90 74 78 108 176 219 187 166 168 173 180 207 295 281 249 194 170 162 161
108 96 123 97 103 118 49 39 47 58 81 72 79 86 127 95 118 207 206 104 101 104 107 117 125 145 126 128 115 103 139 93 34 116 92 86 48 359 352 355 343 203 189 190 196 210 239 243 263 264 191 166 158 151
103 109 99 98 109 126 157 102 101 93 48 58 115 182 165 131 167 212 188 155 153 157 158 154 126 128 134 124 118 96 152 226 258 156 122 116 96 29 291 317 306 136 139 199 240 229 232 237 246 209 153 138 128 197